K5KVN Weather Reports


time (UTC)temp
C
wind
direction
speed
KPH
gust
KPH
rain 1hr
cm
rain 24hr
cm
rain mn
cm
humidity
%
barometer
mb
20260510105502 15 179 0.0 0.0 0.00 0.03 0.00 91 1015.1
20260510104502 15 179 0.0 0.0 0.00 0.03 0.00 90 1015.1
20260510103503 15 179 0.0 0.0 0.00 0.03 0.00 90 1015.2
20260510102503 15 179 0.0 0.0 0.00 0.03 0.00 89 1015.1
20260510101500 15 179 0.0 0.0 0.00 0.03 0.00 89 1015.0
20260510100459 16 179 0.0 0.0 0.00 0.03 0.00 88 1015.0
20260510095503 16 179 0.0 0.0 0.00 0.03 0.00 88 1014.7
20260510095459 16 179 0.0 0.0 0.00 0.03 0.00 87 1014.7
20260510094603 16 179 0.0 0.0 0.00 0.03 0.00 87 1014.7
20260510093502 16 179 0.0 0.0 0.00 0.03 0.00 86 1014.5
20260510093457 16 179 0.0 0.0 0.00 0.03 0.00 86 1014.2
20260510092600 16 179 0.0 0.0 0.00 0.03 0.00 86 1014.2
20260510091455 16 179 0.0 0.0 0.00 0.03 0.00 85 1013.7
20260510090455 16 179 0.0 1.6 0.00 0.03 0.00 85 1013.6
20260510085452 16 211 0.0 1.6 0.00 0.03 0.00 86 1013.7
20260510084452 16 333 0.0 0.0 0.00 0.03 0.00 87 1014.0
20260510083450 16 333 0.0 0.0 0.00 0.03 0.00 87 1013.9
20260510082451 15 333 0.0 0.0 0.00 0.03 0.00 89 1013.6
20260510081459 15 337 0.0 0.0 0.00 0.03 0.00 92 1014.2
20260510081448 15 337 0.0 0.0 0.00 0.03 0.00 91 1013.9
20260510080554 15 337 0.0 0.0 0.00 0.03 0.00 92 1014.2
20260510075448 15 337 0.0 0.0 0.00 0.03 0.00 91 1014.0
20260510074447 15 337 0.0 0.0 0.00 0.03 0.00 91 1013.8
20260510073447 15 337 0.0 0.0 0.00 0.03 0.00 90 1014.0
20260510072445 15 337 0.0 0.0 0.00 0.03 0.00 90 1013.5
20260510071446 15 337 0.0 0.0 0.00 0.03 0.00 89 1013.7
20260510070446 15 337 0.0 0.0 0.00 0.03 0.00 89 1014.1
20260510065457 15 337 0.0 0.0 0.00 0.03 0.00 89 1014.7
20260510065445 15 337 0.0 0.0 0.00 0.03 0.00 88 1014.3
20260510064447 15 337 0.0 0.0 0.00 0.03 0.00 89 1014.4
20260510063551 15 337 0.0 0.0 0.00 0.03 0.00 89 1014.7
20260510062457 15 337 0.0 0.0 0.00 0.03 0.00 88 1014.8
20260510062447 15 337 0.0 0.0 0.00 0.03 0.00 89 1014.8
20260510061446 15 337 0.0 0.0 0.00 0.03 0.00 89 1015.0
20260510060552 15 337 0.0 0.0 0.00 0.03 0.00 88 1014.8
20260510055552 15 337 0.0 0.0 0.00 0.03 0.00 88 1014.7
20260510054458 15 337 0.0 0.0 0.00 0.03 0.00 88 1014.5
20260510054448 15 337 0.0 0.0 0.00 0.03 0.00 89 1014.6
20260510053551 15 337 0.0 0.0 0.00 0.03 0.00 88 1014.5
20260510052445 15 337 0.0 0.0 0.00 0.03 0.00 88 1014.4
20260510051446 15 337 0.0 0.0 0.00 0.03 0.00 87 1014.3
20260510050445 15 337 0.0 0.0 0.00 0.03 0.00 86 1014.2
20260510045607 15 337 0.0 0.0 0.00 0.03 0.03 86 1013.9
20260510045453 15 337 0.0 0.0 0.00 0.03 0.03 86 1013.9
20260510045443 15 337 0.0 0.0 0.00 0.03 0.03 85 1014.3
20260510044549 15 337 0.0 0.0 0.00 0.03 0.03 86 1013.9
20260510043549 15 337 0.0 0.0 0.00 0.03 0.03 86 1013.9
20260510042446 15 337 0.0 0.0 0.00 0.03 0.03 83 1013.9
20260510041445 15 337 0.0 0.0 0.00 0.03 0.03 84 1013.8
20260510041440 15 337 0.0 0.0 0.00 0.03 0.03 83 1013.9
20260510040546 15 337 0.0 0.0 0.00 0.03 0.03 84 1013.8
20260510035543 15 337 0.0 0.0 0.00 0.03 0.03 83 1013.9
20260510034438 15 337 0.0 0.0 0.00 0.03 0.03 82 1013.6
20260510033439 15 337 0.0 0.0 0.00 0.03 0.03 82 1013.4
20260510032439 16 337 0.0 0.0 0.00 0.03 0.03 83 1013.3
20260510031438 16 337 0.0 0.0 0.00 0.03 0.03 82 1013.0
20260510030436 16 337 0.0 0.0 0.00 0.03 0.03 82 1012.8
20260510025448 16 337 0.0 0.0 0.00 0.03 0.03 82 1012.7
20260510025437 16 337 0.0 0.0 0.00 0.03 0.03 80 1012.8
20260510024541 16 337 0.0 0.0 0.00 0.03 0.03 82 1012.7
20260510023436 16 337 0.0 0.0 0.00 0.03 0.03 78 1012.6
20260510022437 17 337 0.0 0.0 0.00 0.03 0.03 79 1012.4
20260510021436 17 337 0.0 0.0 0.00 0.03 0.03 76 1012.2
20260510020437 17 337 0.0 0.0 0.00 0.03 0.03 71 1011.9
20260510015437 18 337 0.0 0.0 0.00 0.03 0.03 72 1011.5
20260510014436 18 337 0.0 0.0 0.00 0.03 0.03 66 1011.3
20260510013435 19 337 0.0 0.0 0.00 0.05 0.03 67 1011.1
20260510012436 20 337 0.0 0.0 0.00 0.13 0.03 69 1011.1
20260510011434 21 337 0.0 0.0 0.00 0.18 0.03 66 1010.9
20260510010436 21 337 0.0 0.0 0.00 0.23 0.03 64 1010.8
20260510005434 22 138 0.0 0.0 0.00 0.25 0.03 57 1010.8
20260510004433 22 138 0.0 0.0 0.00 0.25 0.03 52 1010.6
20260510003434 23 138 0.0 0.0 0.00 0.25 0.03 52 1010.6
20260510002431 23 138 0.0 0.0 0.00 0.25 0.03 53 1010.6
20260510001432 23 232 0.0 0.0 0.00 0.25 0.03 55 1010.6
20260510000434 24 321 0.0 0.0 0.00 0.25 0.03 55 1010.7
20260509235430 25 333 0.0 1.6 0.00 0.25 0.03 53 1010.8
20260509234429 25 180 0.0 0.0 0.00 0.25 0.03 48 1010.8
20260509233429 25 198 0.0 6.4 0.00 0.25 0.03 51 1010.9
20260509232430 25 169 0.0 3.2 0.00 0.25 0.03 50 1010.9
20260509231429 25 170 0.0 1.6 0.00 0.25 0.03 47 1011.0
20260509230427 26 8 0.0 4.8 0.00 0.25 0.03 46 1011.1
20260509225436 26 338 0.0 1.6 0.00 0.25 0.03 43 1010.9
20260509225427 26 1 0.0 1.6 0.00 0.25 0.03 43 1010.9
20260509224532 26 338 0.0 1.6 0.00 0.25 0.03 43 1010.9
20260509223437 26 176 0.0 4.8 0.00 0.25 0.03 38 1011.0
20260509223427 26 176 0.0 3.2 0.00 0.25 0.03 47 1011.0
20260509222532 26 176 0.0 4.8 0.00 0.25 0.03 38 1011.0
20260509221427 27 170 0.0 4.8 0.00 0.25 0.03 39 1011.0
20260509220427 27 195 1.6 6.4 0.00 0.25 0.03 39 1011.0
20260509215427 27 180 1.6 8.0 0.00 0.25 0.03 44 1011.0
20260509214427 27 168 0.0 4.8 0.00 0.25 0.03 45 1011.0
20260509213427 27 218 1.6 6.4 0.00 0.25 0.03 36 1011.0
20260509212429 27 0 0.0 1.6 0.00 0.25 0.03 37 1011.1
20260509211427 27 197 0.0 4.8 0.00 0.25 0.03 38 1011.3
20260509210427 27 197 0.0 3.2 0.00 0.25 0.03 42 1011.4
20260509205426 27 197 0.0 1.6 0.00 0.25 0.03 41 1011.5
20260509204437 27 198 1.6 4.8 0.00 0.25 0.03 39 1011.7
20260509204426 27 197 0.0 4.8 0.00 0.25 0.03 41 1011.6
20260509203530 27 198 1.6 4.8 0.00 0.25 0.03 39 1011.7
20260509202426 27 188 1.6 8.0 0.00 0.25 0.03 40 1011.7
20260509201422 27 290 1.6 3.2 0.00 0.25 0.03 43 1011.9
20260509200426 27 293 0.0 4.8 0.00 0.25 0.03 42 1012.0
20260509195434 27 347 3.2 8.0 0.00 0.25 0.03 43 1012.2
20260509195424 27 299 0.0 1.6 0.00 0.25 0.03 42 1012.0
20260509194548 27 334 1.6 8.0 0.00 0.25 0.03 44 1012.2
20260509194530 27 347 3.2 8.0 0.00 0.25 0.03 43 1012.2
20260509192421 27 319 1.6 9.7 0.00 0.25 0.03 49 1012.2
20260509191420 27 2 0.0 1.6 0.00 0.25 0.03 38 1012.2
20260509190421 26 186 1.6 8.0 0.00 0.25 0.03 40 1012.3
20260509185420 26 342 0.0 0.0 0.00 0.25 0.03 45 1012.3
20260509184422 26 340 0.0 1.6 0.00 0.25 0.03 42 1012.5
20260509183430 26 249 1.6 6.4 0.00 0.25 0.03 36 1012.5
20260509183420 26 165 1.6 3.2 0.00 0.25 0.03 40 1012.6
20260509182526 26 249 1.6 6.4 0.00 0.25 0.03 36 1012.5
20260509181422 26 160 0.0 1.6 0.00 0.25 0.03 39 1012.5
20260509180420 26 160 0.0 4.8 0.00 0.25 0.03 45 1012.6
20260509175432 25 202 1.6 6.4 0.00 0.25 0.03 54 1012.7
20260509175421 25 161 1.6 8.0 0.00 0.25 0.03 48 1012.6
20260509174526 25 202 1.6 6.4 0.00 0.25 0.03 54 1012.7
20260509173421 25 205 1.6 8.0 0.00 0.25 0.03 53 1012.8
20260509172432 25 236 1.6 4.8 0.00 0.25 0.03 59 1012.9
20260509172421 25 259 0.0 4.8 0.00 0.25 0.03 61 1012.9
20260509171526 25 236 1.6 4.8 0.00 0.25 0.03 59 1012.9
20260509170421 24 238 1.6 4.8 0.00 0.25 0.03 62 1012.8
20260509165430 23 127 1.6 6.4 0.00 0.25 0.03 66 1012.7
20260509165421 24 207 1.6 6.4 0.00 0.25 0.03 66 1012.8
20260509164524 23 127 1.6 6.4 0.00 0.25 0.03 66 1012.7
20260509163418 23 229 1.6 6.4 0.00 0.25 0.03 69 1012.8
20260509162420 23 230 1.6 6.4 0.00 0.25 0.03 69 1013.0
20260509161418 23 151 3.2 11.3 0.00 0.25 0.03 69 1013.0
20260509160420 23 193 0.0 4.8 0.00 0.25 0.03 74 1013.1
20260509155418 22 226 1.6 6.4 0.00 0.25 0.03 74 1013.0
20260509154420 22 229 1.6 6.4 0.00 0.25 0.03 74 1013.0
20260509153428 21 209 1.6 6.4 0.00 0.25 0.03 80 1013.0
20260509153418 22 217 0.0 4.8 0.00 0.25 0.03 82 1012.8
20260509152524 21 209 1.6 6.4 0.00 0.25 0.03 80 1013.0
20260509151416 21 162 1.6 6.4 0.00 0.25 0.03 81 1013.0
20260509150417 20 220 0.0 1.6 0.00 0.25 0.03 83 1013.0
20260509145418 19 318 0.0 4.8 0.00 0.25 0.03 85 1012.9
20260509144416 18 205 0.0 0.0 0.00 0.25 0.03 89 1012.8
20260509143414 17 215 1.6 4.8 0.00 0.25 0.03 91 1012.9
20260509142413 17 207 1.6 6.4 0.00 0.25 0.03 94 1012.8
20260509141413 16 180 1.6 4.8 0.00 0.25 0.03 96 1012.8
20260509140412 16 180 1.6 4.8 0.00 0.25 0.03 97 1012.7
20260509135412 15 181 0.0 3.2 0.00 0.25 0.03 97 1012.7
20260509134411 15 181 0.0 4.8 0.00 0.25 0.03 97 1012.6
20260509133411 14 181 0.0 1.6 0.00 0.25 0.03 97 1012.5
20260509132409 13 181 0.0 3.2 0.00 0.25 0.03 97 1012.5
20260509131419 12 73 0.0 0.0 0.00 0.25 0.03 97 1012.4
20260509131409 13 73 0.0 0.0 0.00 0.25 0.03 97 1012.3
20260509130514 12 73 0.0 0.0 0.00 0.25 0.03 97 1012.4
20260509125409 12 73 0.0 1.6 0.00 0.25 0.03 97 1012.2
20260509124410 11 319 0.0 0.0 0.00 0.25 0.03 97 1012.2
20260509123406 10 319 0.0 0.0 0.00 0.25 0.03 97 1012.3
20260509122408 10 319 0.0 0.0 0.00 0.25 0.03 96 1012.2
20260509121408 10 319 0.0 0.0 0.00 0.25 0.03 96 1011.8
20260509120408 10 319 0.0 0.0 0.00 0.25 0.03 96 1011.7
20260509115407 10 319 0.0 0.0 0.03 0.25 0.03 96 1011.6
20260509114405 10 319 0.0 0.0 0.03 0.25 0.03 96 1011.6
20260509113403 10 319 0.0 0.0 0.03 0.25 0.03 96 1011.7
20260509112405 10 319 0.0 0.0 0.03 0.25 0.03 96 1011.6
20260509111403 10 311 0.0 0.0 0.03 0.25 0.03 96 1011.5
20260509110404 10 311 0.0 0.0 0.03 0.25 0.03 96 1011.4